FENGYUN 1C DEB, 29846

Orbit data source: Space-Track

FENGYUN 1C DEB, 29846 is space debris in SSO originally from a launch on Mon, 10 May 1999 UTC launched from the Taiyaun Space Center, China (TSC). Fengyun 1C debris stems from the Chinese weather satellite Fengyun-1C, which was intentionally destroyed by a Chinese anti-satellite missile in 2007. This event dramatically increased the amount of space debris, with thousands of trackable fragments posing hazards to satellites and human spaceflight. The Fengyun 1C debris cloud has become a focal point in discussions about space sustainability and the need for international regulations to prevent the creation of new debris.

Loading next visibility...
Identifier
29846, 1999-025EQ
Orbit
SSO
Country
Flag of CNCN / PRC
Related business
Manufacturer
Unknown
Mission
Spacecraft
Bus & Motor
Unknown
Mass
Unknown
Launch date (UTC)
1999-05-10 (27 years ago)
Launch vehicle
Unknown
Launch site
Taiyaun Space Center, China (TSC)
Object type
Payload
Rocket body
Debris
Shape & HBR
Unknown shape, 0.1 m
Radar Cross Section
Medium (>0.1 m² and <1 m²)

Expand to show TLE details & history
Last TLE update: 15 hours ago

TLE from 15 hours ago
0 FENGYUN 1C DEB
1 29846U 99025EQ  26178.06538791  .00000210  00000-0  11576-3 0  9993
2 29846  98.6269 220.0260 0085948  97.9236 326.7677 14.19208280  6428
Epoch: 2026-06-27T01:34Z
TLE epoch observation values (Epoch: 2026-06-27T01:34:09.515Z)
Latitude
62.9327°
Longitude
-95.87497°
Altitude
787.155 km
Speed
7.493 km/s
True Right ascension
13h 31m 23s
True Declination
62° 47' 37"
Sunlit
Object was in daylight at epoch
Visualization orbit readout
Latitude
Unknown
Longitude
Unknown
Altitude
Unknown
Speed
Unknown
Apparent Right ascension
Unknown
Apparent Declination
Unknown
Sunlit
N/A
Visualization observer readout
Local Sidereal Time
03:43:00
Azimuth
Unknown
Elevation
Unknown
Doppler factor
Unknown
Orbital elements
Apogee altitude
887.098 km
Perigee altitude
763.276 km
Semi-major axis
7,203.324 km
Eccentricity
0.00859
Inclination
98.6269°
RAAN
220.026°
Arg. of periapsis
97.9236°
True anomaly
326.22306°
Mean anomaly
326.7677°
Eccentric anomaly
326.49587°
Mean motion
3.55013 °/min
Orbital period
101.4 mins
BSTAR
0.00011576
Loading maneuver chart data...
Computing Atmospheric mass density...

Documentation

Showing up to 5 results
|